Time,TemperatureF,DewpointF,PressureIn,WindDirection,WindDirectionDegrees,WindSpeedMPH,WindSpeedGustMPH,Humidity,HourlyPrecipIn,Conditions,Clouds,dailyrainin,SolarRadiationWatts/m^2,SoftwareType,DateUTC
2013-07-13 00:00:00,63.4,61.3,30.23,NE,34,0.0,0.0,93,0.00,,,0.01,0.0,WUHU216DAVISVP2,2013-07-13 04:00:00,
2013-07-13 00:01:00,63.4,61.3,30.23,NE,34,0.0,0.0,93,0.00,,,0.00,0.0,WUHU216DAVISVP2,2013-07-13 04:01:00,
2013-07-13 00:02:00,63.4,61.3,30.23,NE,34,0.0,0.0,93,0.00,,,0.00,0.0,WUHU216DAVISVP2,2013-07-13 04:02:00,
2013-07-13 00:07:00,63.2,61.4,30.23,NE,34,0.0,1.0,94,0.00,,,0.00,0.0,WUHU216DAVISVP2,2013-07-13 04:07:00,
2013-07-13 00:12:00,63.1,61.3,30.23,NE,34,0.0,1.0,94,0.00,,,0.00,0.0,WUHU216DAVISVP2,2013-07-13 04:12:00,
2013-07-13 00:17:00,63.0,61.2,30.23,NE,34,0.0,1.0,94,0.00,,,0.00,0.0,WUHU216DAVISVP2,2013-07-13 04:17:00,
2013-07-13 00:22:00,62.7,60.9,30.23,NE,34,0.0,1.0,94,0.00,,,0.00,0.0,WUHU216DAVISVP2,2013-07-13 04:22:00,
2013-07-13 00:27:00,62.6,60.5,30.23,NE,34,0.0,0.0,93,0.00,,,0.00,0.0,WUHU216DAVISVP2,2013-07-13 04:27:00,
2013-07-13 00:32:00,62.6,60.8,30.23,NE,34,0.0,0.0,94,0.00,,,0.00,0.0,WUHU216DAVISVP2,2013-07-13 04:32:00,
2013-07-13 00:37:00,62.5,60.4,30.23,NE,34,0.0,0.0,93,0.00,,,0.00,0.0,WUHU216DAVISVP2,2013-07-13 04:37:00,
2013-07-13 00:42:00,62.4,60.6,30.23,NE,34,0.0,0.0,94,0.00,,,0.00,0.0,WUHU216DAVISVP2,2013-07-13 04:42:00,
2013-07-13 00:47:00,62.1,60.7,30.24,NE,34,0.0,0.0,95,0.00,,,0.00,0.0,WUHU216DAVISVP2,2013-07-13 04:47:00,
2013-07-13 00:52:00,61.8,60.4,30.24,NE,34,0.0,1.0,95,0.00,,,0.00,0.0,WUHU216DAVISVP2,2013-07-13 04:52:00,
2013-07-13 00:57:00,61.8,60.3,30.24,NE,34,0.0,1.0,95,0.00,,,0.00,0.0,WUHU216DAVISVP2,2013-07-13 04:57:00,
2013-07-13 01:02:00,61.8,60.0,30.24,NE,34,0.0,1.0,94,0.00,,,0.00,0.0,WUHU216DAVISVP2,2013-07-13 05:02:00,
2013-07-13 01:07:00,61.7,59.9,30.24,NE,34,0.0,1.0,94,0.00,,,0.00,0.0,WUHU216DAVISVP2,2013-07-13 05:07:00,
2013-07-13 01:12:00,61.6,60.1,30.24,NE,34,0.0,1.0,95,0.00,,,0.00,0.0,WUHU216DAVISVP2,2013-07-13 05:12:00,
2013-07-13 01:17:00,61.3,59.9,30.24,NE,34,0.0,0.0,95,0.00,,,0.00,0.0,WUHU216DAVISVP2,2013-07-13 05:17:00,
2013-07-13 01:22:00,61.1,59.6,30.24,NE,34,0.0,0.0,95,0.00,,,0.00,0.0,WUHU216DAVISVP2,2013-07-13 05:22:00,
2013-07-13 01:27:00,61.0,59.8,30.24,NE,34,0.0,1.0,96,0.00,,,0.00,0.0,WUHU216DAVISVP2,2013-07-13 05:27:00,
2013-07-13 01:32:00,60.9,59.4,30.25,NE,34,0.0,1.0,95,0.00,,,0.00,0.0,WUHU216DAVISVP2,2013-07-13 05:32:00,
2013-07-13 01:37:00,60.8,59.3,30.25,NE,34,0.0,1.0,95,0.00,,,0.00,0.0,WUHU216DAVISVP2,2013-07-13 05:37:00,
2013-07-13 01:42:00,60.7,59.2,30.25,NE,34,0.0,0.0,95,0.00,,,0.00,0.0,WUHU216DAVISVP2,2013-07-13 05:42:00,
2013-07-13 01:47:00,60.6,59.4,30.25,NE,34,0.0,0.0,96,0.00,,,0.00,0.0,WUHU216DAVISVP2,2013-07-13 05:47:00,
2013-07-13 01:52:00,60.5,59.4,30.25,NE,34,0.0,0.0,96,0.00,,,0.00,0.0,WUHU216DAVISVP2,2013-07-13 05:52:00,
2013-07-13 01:57:00,60.5,59.0,30.25,NE,34,0.0,0.0,95,0.00,,,0.00,0.0,WUHU216DAVISVP2,2013-07-13 05:57:00,
2013-07-13 02:02:00,60.5,59.0,30.25,NE,34,0.0,1.0,95,0.00,,,0.00,0.0,WUHU216DAVISVP2,2013-07-13 06:02:00,
2013-07-13 02:07:00,60.6,59.4,30.25,NE,34,0.0,1.0,96,0.00,,,0.00,0.0,WUHU216DAVISVP2,2013-07-13 06:07:00,
2013-07-13 02:12:00,60.7,59.5,30.25,NE,34,0.0,1.0,96,0.00,,,0.00,0.0,WUHU216DAVISVP2,2013-07-13 06:12:00,
2013-07-13 02:17:00,60.7,59.2,30.26,NE,34,0.0,1.0,95,0.00,,,0.00,0.0,WUHU216DAVISVP2,2013-07-13 06:17:00,
2013-07-13 02:22:00,60.7,59.3,30.26,NE,34,0.0,1.0,95,0.00,,,0.00,0.0,WUHU216DAVISVP2,2013-07-13 06:22:00,
2013-07-13 02:27:00,60.5,59.3,30.26,NE,34,0.0,0.0,96,0.00,,,0.00,0.0,WUHU216DAVISVP2,2013-07-13 06:27:00,
2013-07-13 02:32:00,60.5,59.3,30.26,NE,34,0.0,0.0,96,0.00,,,0.00,0.0,WUHU216DAVISVP2,2013-07-13 06:32:00,
2013-07-13 02:37:00,60.5,59.3,30.26,NE,34,0.0,0.0,96,0.00,,,0.00,0.0,WUHU216DAVISVP2,2013-07-13 06:37:00,
2013-07-13 02:42:00,60.5,59.3,30.26,NE,34,0.0,0.0,96,0.00,,,0.00,0.0,WUHU216DAVISVP2,2013-07-13 06:42:00,
2013-07-13 02:47:00,60.3,59.1,30.26,NE,34,0.0,0.0,96,0.00,,,0.00,0.0,WUHU216DAVISVP2,2013-07-13 06:47:00,
2013-07-13 02:52:00,60.0,58.8,30.26,NE,34,0.0,0.0,96,0.00,,,0.00,0.0,WUHU216DAVISVP2,2013-07-13 06:52:00,
2013-07-13 02:57:00,59.9,58.7,30.26,NE,34,0.0,0.0,96,0.00,,,0.00,0.0,WUHU216DAVISVP2,2013-07-13 06:57:00,
2013-07-13 03:02:00,59.8,58.7,30.26,NE,34,0.0,0.0,96,0.00,,,0.00,0.0,WUHU216DAVISVP2,2013-07-13 07:02:00,
2013-07-13 03:07:00,59.9,58.7,30.25,NE,34,0.0,1.0,96,0.00,,,0.00,0.0,WUHU216DAVISVP2,2013-07-13 07:07:00,
2013-07-13 03:12:00,59.9,58.7,30.26,NE,34,0.0,1.0,96,0.00,,,0.00,0.0,WUHU216DAVISVP2,2013-07-13 07:12:00,
2013-07-13 03:17:00,59.9,58.7,30.26,NE,34,0.0,1.0,96,0.00,,,0.00,0.0,WUHU216DAVISVP2,2013-07-13 07:17:00,
2013-07-13 03:22:00,59.8,58.6,30.26,NE,34,0.0,1.0,96,0.00,,,0.00,0.0,WUHU216DAVISVP2,2013-07-13 07:22:00,
2013-07-13 03:27:00,59.9,58.7,30.26,NE,34,0.0,1.0,96,0.00,,,0.00,0.0,WUHU216DAVISVP2,2013-07-13 07:27:00,
2013-07-13 03:32:00,59.9,58.7,30.26,NE,34,0.0,1.0,96,0.00,,,0.00,0.0,WUHU216DAVISVP2,2013-07-13 07:32:00,
2013-07-13 03:37:00,59.8,58.7,30.26,NE,34,0.0,1.0,96,0.00,,,0.00,0.0,WUHU216DAVISVP2,2013-07-13 07:37:00,
2013-07-13 03:42:00,59.8,58.7,30.27,NE,34,0.0,1.0,96,0.00,,,0.00,0.0,WUHU216DAVISVP2,2013-07-13 07:42:00,
2013-07-13 03:47:00,59.8,58.6,30.27,NE,34,0.0,1.0,96,0.00,,,0.00,0.0,WUHU216DAVISVP2,2013-07-13 07:47:00,
2013-07-13 03:52:00,59.8,58.6,30.27,NE,34,0.0,1.0,96,0.00,,,0.00,0.0,WUHU216DAVISVP2,2013-07-13 07:52:00,
2013-07-13 03:57:00,59.7,58.5,30.27,NE,34,0.0,1.0,96,0.00,,,0.00,0.0,WUHU216DAVISVP2,2013-07-13 07:57:00,
2013-07-13 04:02:00,59.6,58.4,30.27,NE,34,0.0,1.0,96,0.00,,,0.00,0.0,WUHU216DAVISVP2,2013-07-13 08:02:00,
2013-07-13 04:07:00,59.5,58.3,30.27,NE,34,0.0,1.0,96,0.00,,,0.00,0.0,WUHU216DAVISVP2,2013-07-13 08:07:00,
2013-07-13 04:12:00,59.5,58.3,30.27,NE,34,0.0,1.0,96,0.00,,,0.00,0.0,WUHU216DAVISVP2,2013-07-13 08:12:00,
2013-07-13 04:17:00,59.5,58.4,30.27,NE,34,0.0,1.0,96,0.00,,,0.00,0.0,WUHU216DAVISVP2,2013-07-13 08:17:00,
2013-07-13 04:22:00,59.5,58.1,30.27,NE,34,0.0,1.0,95,0.00,,,0.00,0.0,WUHU216DAVISVP2,2013-07-13 08:22:00,
2013-07-13 04:27:00,59.4,57.9,30.27,NE,34,0.0,1.0,95,0.00,,,0.00,0.0,WUHU216DAVISVP2,2013-07-13 08:27:00,
2013-07-13 04:32:00,59.4,57.9,30.27,NE,34,0.0,1.0,95,0.00,,,0.00,0.0,WUHU216DAVISVP2,2013-07-13 08:32:00,
2013-07-13 04:37:00,59.4,57.9,30.27,NE,34,0.0,1.0,95,0.00,,,0.00,0.0,WUHU216DAVISVP2,2013-07-13 08:37:00,
2013-07-13 04:42:00,59.2,57.7,30.27,NE,34,0.0,1.0,95,0.00,,,0.00,0.0,WUHU216DAVISVP2,2013-07-13 08:42:00,
2013-07-13 04:47:00,59.1,57.9,30.27,NE,34,0.0,1.0,96,0.00,,,0.00,0.0,WUHU216DAVISVP2,2013-07-13 08:47:00,
2013-07-13 04:52:00,59.1,57.9,30.27,NE,34,0.0,0.0,96,0.00,,,0.00,0.0,WUHU216DAVISVP2,2013-07-13 08:52:00,
2013-07-13 04:57:00,59.1,57.9,30.27,NE,34,1.0,1.0,96,0.00,,,0.00,0.0,WUHU216DAVISVP2,2013-07-13 08:57:00,
2013-07-13 05:02:00,59.1,58.0,30.27,NE,34,0.0,1.0,96,0.00,,,0.00,0.0,WUHU216DAVISVP2,2013-07-13 09:02:00,
2013-07-13 05:07:00,59.1,58.0,30.27,NE,34,0.0,1.0,96,0.00,,,0.00,0.0,WUHU216DAVISVP2,2013-07-13 09:07:00,
2013-07-13 05:12:00,59.1,57.6,30.28,NE,34,0.0,1.0,95,0.00,,,0.00,5.0,WUHU216DAVISVP2,2013-07-13 09:12:00,
2013-07-13 05:17:00,59.1,57.9,30.28,NE,34,0.0,1.0,96,0.00,,,0.00,0.0,WUHU216DAVISVP2,2013-07-13 09:17:00,
2013-07-13 05:22:00,59.1,57.9,30.28,NE,34,0.0,1.0,96,0.00,,,0.00,0.0,WUHU216DAVISVP2,2013-07-13 09:22:00,
2013-07-13 05:27:00,59.1,57.9,30.28,NE,34,0.0,1.0,96,0.00,,,0.00,5.0,WUHU216DAVISVP2,2013-07-13 09:27:00,
2013-07-13 05:32:00,59.1,57.9,30.28,NE,34,0.0,1.0,96,0.00,,,0.00,9.0,WUHU216DAVISVP2,2013-07-13 09:32:00,
2013-07-13 05:37:00,59.1,57.9,30.27,NE,34,0.0,1.0,96,0.00,,,0.00,12.0,WUHU216DAVISVP2,2013-07-13 09:37:00,
2013-07-13 05:42:00,59.0,57.8,30.27,NE,34,0.0,1.0,96,0.00,,,0.00,18.0,WUHU216DAVISVP2,2013-07-13 09:42:00,
2013-07-13 05:47:00,59.1,58.0,30.27,NE,34,0.0,1.0,96,0.00,,,0.00,21.0,WUHU216DAVISVP2,2013-07-13 09:47:00,
2013-07-13 05:52:00,59.1,58.2,30.27,NE,34,0.0,0.0,97,0.00,,,0.00,26.0,WUHU216DAVISVP2,2013-07-13 09:52:00,
2013-07-13 05:57:00,59.2,58.3,30.27,NE,34,0.0,0.0,97,0.00,,,0.00,32.0,WUHU216DAVISVP2,2013-07-13 09:57:00,
2013-07-13 06:02:00,59.3,58.4,30.27,NE,34,0.0,1.0,97,0.00,,,0.00,35.0,WUHU216DAVISVP2,2013-07-13 10:02:00,
2013-07-13 06:07:00,59.5,58.6,30.27,NE,34,0.0,1.0,97,0.00,,,0.00,40.0,WUHU216DAVISVP2,2013-07-13 10:07:00,
2013-07-13 06:12:00,59.8,58.6,30.28,NE,34,0.0,1.0,96,0.00,,,0.00,44.0,WUHU216DAVISVP2,2013-07-13 10:12:00,
2013-07-13 06:17:00,60.0,59.1,30.28,NE,34,0.0,1.0,97,0.00,,,0.00,49.0,WUHU216DAVISVP2,2013-07-13 10:17:00,
2013-07-13 06:22:00,60.2,59.0,30.28,NE,34,0.0,1.0,96,0.00,,,0.00,58.0,WUHU216DAVISVP2,2013-07-13 10:22:00,
2013-07-13 06:27:00,60.6,59.4,30.28,NE,34,0.0,1.0,96,0.00,,,0.00,62.0,WUHU216DAVISVP2,2013-07-13 10:27:00,
2013-07-13 06:32:00,60.8,59.3,30.28,NE,34,1.0,2.0,95,0.00,,,0.00,65.0,WUHU216DAVISVP2,2013-07-13 10:32:00,
2013-07-13 06:37:00,61.1,59.9,30.29,NE,34,0.0,2.0,96,0.00,,,0.00,69.0,WUHU216DAVISVP2,2013-07-13 10:37:00,
2013-07-13 06:42:00,61.6,60.1,30.29,NE,34,1.0,2.0,95,0.00,,,0.00,67.0,WUHU216DAVISVP2,2013-07-13 10:42:00,
2013-07-13 06:47:00,61.9,60.4,30.29,NE,34,0.0,2.0,95,0.00,,,0.00,69.0,WUHU216DAVISVP2,2013-07-13 10:47:00,
2013-07-13 06:52:00,62.5,61.0,30.29,NE,34,0.0,1.0,95,0.00,,,0.00,70.0,WUHU216DAVISVP2,2013-07-13 10:52:00,
2013-07-13 06:57:00,62.7,60.9,30.29,NE,34,0.0,1.0,94,0.00,,,0.00,72.0,WUHU216DAVISVP2,2013-07-13 10:57:00,
2013-07-13 07:02:00,62.5,60.4,30.29,NNE,20,0.0,2.0,93,0.00,,,0.00,76.0,WUHU216DAVISVP2,2013-07-13 11:02:00,
2013-07-13 07:07:00,62.6,60.5,30.29,NNE,19,0.0,2.0,93,0.00,,,0.00,88.0,WUHU216DAVISVP2,2013-07-13 11:07:00,
2013-07-13 07:12:00,62.9,60.8,30.29,NNE,19,0.0,2.0,93,0.00,,,0.00,98.0,WUHU216DAVISVP2,2013-07-13 11:12:00,
2013-07-13 07:17:00,63.6,61.8,30.29,NNE,19,0.0,2.0,94,0.00,,,0.00,105.0,WUHU216DAVISVP2,2013-07-13 11:17:00,
2013-07-13 07:22:00,63.9,61.8,30.29,NNE,19,0.0,2.0,93,0.00,,,0.00,114.0,WUHU216DAVISVP2,2013-07-13 11:22:00,
2013-07-13 07:27:00,64.2,61.5,30.29,NNE,19,0.0,0.0,91,0.00,,,0.00,116.0,WUHU216DAVISVP2,2013-07-13 11:27:00,
2013-07-13 07:35:00,64.1,61.7,30.30,NNE,19,0.0,0.0,92,0.00,,,0.00,120,Wunderground v.1.15,2013-07-13 11:35:00,
2013-07-13 07:45:00,65.4,62.7,30.30,NNE,19,0.0,0.0,91,0.00,,,0.00,141,Wunderground v.1.15,2013-07-13 11:45:00,
2013-07-13 07:50:00,65.2,62.2,30.30,NNE,19,0.0,0.0,90,0.00,,,0.00,142,Wunderground v.1.15,2013-07-13 11:50:00,
2013-07-13 07:57:00,65.7,62.4,30.30,NNE,19,0.0,1.0,89,0.00,,,0.00,132.0,WUHU216DAVISVP2,2013-07-13 11:57:00,
2013-07-13 08:02:00,65.6,62.9,30.31,NNE,19,0.0,1.0,91,0.00,,,0.00,139.0,WUHU216DAVISVP2,2013-07-13 12:02:00,
2013-07-13 08:07:00,65.9,62.9,30.31,NNE,19,0.0,2.0,90,0.00,,,0.00,134.0,WUHU216DAVISVP2,2013-07-13 12:07:00,
2013-07-13 08:12:00,66.0,62.6,30.31,SSW,213,0.0,3.0,89,0.00,,,0.00,151.0,WUHU216DAVISVP2,2013-07-13 12:12:00,
2013-07-13 08:17:00,66.3,63.6,30.31,SSW,213,0.0,3.0,91,0.00,,,0.00,149.0,WUHU216DAVISVP2,2013-07-13 12:17:00,
2013-07-13 08:22:00,66.7,63.0,30.31,SSW,213,2.0,3.0,88,0.00,,,0.00,141.0,WUHU216DAVISVP2,2013-07-13 12:22:00,
2013-07-13 08:27:00,67.0,63.6,30.31,SW,219,2.0,3.0,89,0.00,,,0.00,135.0,WUHU216DAVISVP2,2013-07-13 12:27:00,
2013-07-13 08:32:00,67.0,63.0,30.31,SW,222,0.0,2.0,87,0.00,,,0.00,134.0,WUHU216DAVISVP2,2013-07-13 12:32:00,
2013-07-13 08:37:00,67.7,64.3,30.31,SW,222,0.0,2.0,89,0.00,,,0.00,128.0,WUHU216DAVISVP2,2013-07-13 12:37:00,
2013-07-13 08:42:00,68.3,64.3,30.31,SW,222,1.0,2.0,87,0.00,,,0.00,120.0,WUHU216DAVISVP2,2013-07-13 12:42:00,
2013-07-13 08:47:00,68.4,64.7,30.31,SW,222,0.0,2.0,88,0.00,,,0.00,262.0,WUHU216DAVISVP2,2013-07-13 12:47:00,
2013-07-13 08:52:00,69.0,64.6,30.31,NE,42,0.0,2.0,86,0.00,,,0.00,512.0,WUHU216DAVISVP2,2013-07-13 12:52:00,
2013-07-13 08:57:00,69.8,65.8,30.31,NW,323,0.0,2.0,87,0.00,,,0.00,260.0,WUHU216DAVISVP2,2013-07-13 12:57:00,
2013-07-13 09:02:00,69.7,65.7,30.31,NW,323,0.0,2.0,87,0.00,,,0.00,193.0,WUHU216DAVISVP2,2013-07-13 13:02:00,
2013-07-13 09:07:00,69.3,65.3,30.31,NW,323,0.0,2.0,87,0.00,,,0.00,202.0,WUHU216DAVISVP2,2013-07-13 13:07:00,
2013-07-13 09:12:00,70.1,65.4,30.31,NW,323,1.0,2.0,85,0.00,,,0.00,218.0,WUHU216DAVISVP2,2013-07-13 13:12:00,
2013-07-13 09:17:00,69.9,64.9,30.31,WNW,294,1.0,2.0,84,0.00,,,0.00,225.0,WUHU216DAVISVP2,2013-07-13 13:17:00,
2013-07-13 09:22:00,70.1,64.1,30.31,WNW,294,1.0,2.0,81,0.00,,,0.00,232.0,WUHU216DAVISVP2,2013-07-13 13:22:00,
2013-07-13 09:27:00,70.4,64.6,30.31,WNW,294,0.0,2.0,82,0.00,,,0.00,209.0,WUHU216DAVISVP2,2013-07-13 13:27:00,
2013-07-13 09:32:00,71.0,66.6,30.31,WNW,294,0.0,2.0,86,0.00,,,0.00,176.0,WUHU216DAVISVP2,2013-07-13 13:32:00,
2013-07-13 09:37:00,71.1,66.0,30.31,WNW,294,1.0,2.0,84,0.00,,,0.00,155.0,WUHU216DAVISVP2,2013-07-13 13:37:00,
2013-07-13 09:42:00,70.5,66.1,30.32,WNW,294,0.0,2.0,86,0.00,,,0.00,135.0,WUHU216DAVISVP2,2013-07-13 13:42:00,
2013-07-13 09:47:00,70.4,66.0,30.32,WNW,294,0.0,2.0,86,0.00,,,0.00,120.0,WUHU216DAVISVP2,2013-07-13 13:47:00,
2013-07-13 09:52:00,70.4,66.4,30.32,WNW,294,1.0,2.0,87,0.00,,,0.00,114.0,WUHU216DAVISVP2,2013-07-13 13:52:00,
2013-07-13 09:57:00,70.1,66.1,30.32,WNW,294,0.0,1.0,87,0.00,,,0.00,100.0,WUHU216DAVISVP2,2013-07-13 13:57:00,
2013-07-13 10:02:00,69.9,66.2,30.32,WNW,294,1.0,1.0,88,0.00,,,0.00,90.0,WUHU216DAVISVP2,2013-07-13 14:02:00,
2013-07-13 10:07:00,69.8,65.8,30.32,WNW,294,0.0,1.0,87,0.00,,,0.00,90.0,WUHU216DAVISVP2,2013-07-13 14:07:00,
2013-07-13 10:12:00,69.8,66.4,30.32,WNW,294,0.0,1.0,89,0.00,,,0.00,88.0,WUHU216DAVISVP2,2013-07-13 14:12:00,
2013-07-13 10:17:00,69.8,66.1,30.32,WNW,294,1.0,2.0,88,0.00,,,0.00,93.0,WUHU216DAVISVP2,2013-07-13 14:17:00,
2013-07-13 10:22:00,69.7,66.0,30.32,WNW,294,0.0,2.0,88,0.00,,,0.00,113.0,WUHU216DAVISVP2,2013-07-13 14:22:00,
2013-07-13 10:27:00,69.9,65.9,30.32,WNW,294,1.0,2.0,87,0.00,,,0.00,130.0,WUHU216DAVISVP2,2013-07-13 14:27:00,
2013-07-13 10:32:00,70.1,66.1,30.32,WNW,294,0.0,2.0,87,0.00,,,0.00,118.0,WUHU216DAVISVP2,2013-07-13 14:32:00,
2013-07-13 10:37:00,70.1,66.1,30.32,WNW,294,0.0,1.0,87,0.00,,,0.00,105.0,WUHU216DAVISVP2,2013-07-13 14:37:00,
2013-07-13 10:42:00,70.1,66.0,30.32,WNW,294,1.0,1.0,87,0.00,,,0.00,93.0,WUHU216DAVISVP2,2013-07-13 14:42:00,
2013-07-13 10:47:00,69.6,65.9,30.32,WNW,294,0.0,2.0,88,0.00,,,0.00,90.0,WUHU216DAVISVP2,2013-07-13 14:47:00,
2013-07-13 10:52:00,69.6,65.6,30.32,WNW,294,0.0,2.0,87,0.00,,,0.00,93.0,WUHU216DAVISVP2,2013-07-13 14:52:00,
2013-07-13 10:57:00,69.8,66.1,30.33,WNW,295,0.0,2.0,88,0.00,,,0.00,111.0,WUHU216DAVISVP2,2013-07-13 14:57:00,
2013-07-13 11:02:00,70.0,66.0,30.33,WNW,295,0.0,2.0,87,0.00,,,0.00,125.0,WUHU216DAVISVP2,2013-07-13 15:02:00,
2013-07-13 11:07:00,70.3,66.9,30.33,WNW,295,1.0,2.0,89,0.00,,,0.00,163.0,WUHU216DAVISVP2,2013-07-13 15:07:00,
2013-07-13 11:12:00,70.6,66.9,30.32,WNW,301,0.0,2.0,88,0.00,,,0.00,214.0,WUHU216DAVISVP2,2013-07-13 15:12:00,
2013-07-13 11:17:00,71.3,67.6,30.32,WNW,301,2.0,2.0,88,0.00,,,0.00,227.0,WUHU216DAVISVP2,2013-07-13 15:17:00,
2013-07-13 11:22:00,71.5,67.1,30.32,WNW,302,0.0,2.0,86,0.00,,,0.00,237.0,WUHU216DAVISVP2,2013-07-13 15:22:00,
2013-07-13 11:27:00,71.7,65.3,30.32,WNW,302,0.0,2.0,80,0.00,,,0.00,211.0,WUHU216DAVISVP2,2013-07-13 15:27:00,
2013-07-13 11:32:00,72.0,67.9,30.32,WNW,302,0.0,2.0,87,0.00,,,0.00,213.0,WUHU216DAVISVP2,2013-07-13 15:32:00,
2013-07-13 11:37:00,71.9,67.8,30.32,WNW,302,0.0,1.0,87,0.00,,,0.00,229.0,WUHU216DAVISVP2,2013-07-13 15:37:00,
2013-07-13 11:42:00,72.4,68.0,30.32,WNW,302,0.0,1.0,86,0.00,,,0.00,257.0,WUHU216DAVISVP2,2013-07-13 15:42:00,
2013-07-13 11:47:00,73.0,67.9,30.32,WNW,302,0.0,0.0,84,0.00,,,0.00,315.0,WUHU216DAVISVP2,2013-07-13 15:47:00,
2013-07-13 11:52:00,73.1,68.0,30.32,WNW,302,0.0,1.0,84,0.00,,,0.00,329.0,WUHU216DAVISVP2,2013-07-13 15:52:00,
2013-07-13 11:57:00,73.6,68.1,30.32,WNW,302,1.0,1.0,83,0.00,,,0.00,311.0,WUHU216DAVISVP2,2013-07-13 15:57:00,
2013-07-13 12:02:00,74.2,69.1,30.32,WNW,302,1.0,1.0,84,0.00,,,0.00,341.0,WUHU216DAVISVP2,2013-07-13 16:02:00,
2013-07-13 12:07:00,74.8,69.0,30.32,WNW,302,0.0,1.0,82,0.00,,,0.00,404.0,WUHU216DAVISVP2,2013-07-13 16:07:00,
2013-07-13 12:12:00,75.0,67.1,30.32,WNW,302,1.0,2.0,76,0.00,,,0.00,394.0,WUHU216DAVISVP2,2013-07-13 16:12:00,
2013-07-13 12:17:00,73.7,64.3,30.32,SSW,199,0.0,3.0,72,0.00,,,0.00,362.0,WUHU216DAVISVP2,2013-07-13 16:17:00,
2013-07-13 12:22:00,74.9,66.2,30.32,WSW,240,1.0,3.0,74,0.00,,,0.00,429.0,WUHU216DAVISVP2,2013-07-13 16:22:00,
2013-07-13 12:27:00,74.4,66.1,30.32,West,267,2.0,3.0,75,0.00,,,0.00,515.0,WUHU216DAVISVP2,2013-07-13 16:27:00,
2013-07-13 12:32:00,75.5,65.6,30.32,NE,53,1.0,3.0,71,0.00,,,0.00,605.0,WUHU216DAVISVP2,2013-07-13 16:32:00,
2013-07-13 12:37:00,76.7,66.8,30.31,NNE,22,0.0,3.0,71,0.00,,,0.00,698.0,WUHU216DAVISVP2,2013-07-13 16:37:00,
2013-07-13 12:42:00,77.1,66.4,30.31,NE,46,1.0,4.0,69,0.00,,,0.00,649.0,WUHU216DAVISVP2,2013-07-13 16:42:00,
2013-07-13 12:47:00,76.8,66.3,30.31,West,274,2.0,4.0,70,0.00,,,0.00,621.0,WUHU216DAVISVP2,2013-07-13 16:47:00,
2013-07-13 12:52:00,76.4,65.3,30.31,WNW,293,2.0,4.0,68,0.00,,,0.00,673.0,WUHU216DAVISVP2,2013-07-13 16:52:00,
2013-07-13 12:57:00,76.6,65.0,30.31,WNW,286,3.0,4.0,67,0.00,,,0.00,649.0,WUHU216DAVISVP2,2013-07-13 16:57:00,
2013-07-13 13:02:00,75.9,66.0,30.31,NW,324,1.0,4.0,71,0.00,,,0.00,517.0,WUHU216DAVISVP2,2013-07-13 17:02:00,
2013-07-13 13:07:00,76.6,65.0,30.31,NNW,331,1.0,4.0,67,0.00,,,0.00,538.0,WUHU216DAVISVP2,2013-07-13 17:07:00,
2013-07-13 13:12:00,76.7,64.0,30.31,WSW,244,1.0,4.0,65,0.00,,,0.00,510.0,WUHU216DAVISVP2,2013-07-13 17:12:00,
2013-07-13 13:17:00,78.1,66.9,30.31,NNE,20,1.0,4.0,68,0.00,,,0.00,494.0,WUHU216DAVISVP2,2013-07-13 17:17:00,
2013-07-13 13:22:00,77.5,65.9,30.31,NNE,27,2.0,4.0,67,0.00,,,0.00,554.0,WUHU216DAVISVP2,2013-07-13 17:22:00,
2013-07-13 13:27:00,77.3,64.4,30.31,NW,304,1.0,3.0,64,0.00,,,0.00,388.0,WUHU216DAVISVP2,2013-07-13 17:27:00,
2013-07-13 13:32:00,77.0,63.2,30.31,West,280,2.0,3.0,62,0.00,,,0.00,348.0,WUHU216DAVISVP2,2013-07-13 17:32:00,
2013-07-13 13:37:00,76.5,64.5,30.31,WNW,297,1.0,3.0,66,0.00,,,0.00,533.0,WUHU216DAVISVP2,2013-07-13 17:37:00,
2013-07-13 13:42:00,78.1,65.2,30.31,West,268,3.0,4.0,64,0.00,,,0.00,691.0,WUHU216DAVISVP2,2013-07-13 17:42:00,
2013-07-13 13:47:00,77.4,64.0,30.31,North,351,1.0,4.0,63,0.00,,,0.00,527.0,WUHU216DAVISVP2,2013-07-13 17:47:00,
2013-07-13 13:52:00,78.3,64.4,30.31,NW,309,1.0,4.0,62,0.00,,,0.00,524.0,WUHU216DAVISVP2,2013-07-13 17:52:00,
2013-07-13 13:57:00,77.5,65.0,30.31,North,355,1.0,4.0,65,0.00,,,0.00,469.0,WUHU216DAVISVP2,2013-07-13 17:57:00,
2013-07-13 14:02:00,78.4,66.3,30.31,SSW,196,0.0,3.0,66,0.00,,,0.00,367.0,WUHU216DAVISVP2,2013-07-13 18:02:00,
2013-07-13 14:07:00,77.4,66.6,30.31,West,281,0.0,3.0,69,0.00,,,0.00,318.0,WUHU216DAVISVP2,2013-07-13 18:07:00,
2013-07-13 14:12:00,77.1,66.4,30.31,West,281,0.0,3.0,69,0.00,,,0.00,260.0,WUHU216DAVISVP2,2013-07-13 18:12:00,
2013-07-13 14:17:00,76.8,65.4,30.31,North,350,1.0,3.0,68,0.00,,,0.00,283.0,WUHU216DAVISVP2,2013-07-13 18:17:00,
2013-07-13 14:22:00,77.0,64.6,30.31,SW,218,2.0,4.0,65,0.00,,,0.00,401.0,WUHU216DAVISVP2,2013-07-13 18:22:00,
2013-07-13 14:27:00,77.1,64.7,30.30,North,355,2.0,4.0,65,0.00,,,0.00,649.0,WUHU216DAVISVP2,2013-07-13 18:27:00,
2013-07-13 14:32:00,78.4,65.0,30.30,West,277,0.0,4.0,63,0.00,,,0.00,605.0,WUHU216DAVISVP2,2013-07-13 18:32:00,
2013-07-13 14:37:00,78.1,64.7,30.30,West,277,0.0,4.0,63,0.00,,,0.00,485.0,WUHU216DAVISVP2,2013-07-13 18:37:00,
2013-07-13 14:42:00,78.2,67.0,30.30,West,281,2.0,4.0,68,0.00,,,0.00,631.0,WUHU216DAVISVP2,2013-07-13 18:42:00,
2013-07-13 14:47:00,78.3,67.5,30.30,NW,318,0.0,3.0,69,0.00,,,0.00,397.0,WUHU216DAVISVP2,2013-07-13 18:47:00,
2013-07-13 14:52:00,78.2,65.5,30.30,NW,309,1.0,3.0,65,0.00,,,0.00,438.0,WUHU216DAVISVP2,2013-07-13 18:52:00,
2013-07-13 14:57:00,79.1,66.1,30.30,NE,36,1.0,3.0,64,0.00,,,0.00,534.0,WUHU216DAVISVP2,2013-07-13 18:57:00,
2013-07-13 15:02:00,78.7,68.3,30.30,North,360,0.0,3.0,70,0.00,,,0.00,362.0,WUHU216DAVISVP2,2013-07-13 19:02:00,
2013-07-13 15:07:00,77.9,65.0,30.30,WNW,294,1.0,3.0,64,0.00,,,0.00,301.0,WUHU216DAVISVP2,2013-07-13 19:07:00,
2013-07-13 15:12:00,77.6,64.2,30.30,West,281,0.0,3.0,63,0.00,,,0.00,306.0,WUHU216DAVISVP2,2013-07-13 19:12:00,
2013-07-13 15:17:00,78.3,67.5,30.30,WNW,288,0.0,3.0,69,0.00,,,0.00,306.0,WUHU216DAVISVP2,2013-07-13 19:17:00,
2013-07-13 15:22:00,78.4,68.4,30.30,WNW,288,0.0,3.0,71,0.00,,,0.00,313.0,WUHU216DAVISVP2,2013-07-13 19:22:00,
2013-07-13 15:27:00,78.7,68.3,30.30,WNW,288,1.0,2.0,70,0.00,,,0.00,369.0,WUHU216DAVISVP2,2013-07-13 19:27:00,
2013-07-13 15:32:00,78.8,68.4,30.29,NNE,19,0.0,2.0,70,0.00,,,0.00,299.0,WUHU216DAVISVP2,2013-07-13 19:32:00,
2013-07-13 15:37:00,78.3,68.3,30.30,NE,44,2.0,3.0,71,0.00,,,0.00,322.0,WUHU216DAVISVP2,2013-07-13 19:37:00,
2013-07-13 15:42:00,77.9,67.1,30.29,NW,319,0.0,3.0,69,0.00,,,0.00,236.0,WUHU216DAVISVP2,2013-07-13 19:42:00,
2013-07-13 15:47:00,78.3,67.1,30.29,NE,55,0.0,3.0,68,0.00,,,0.00,206.0,WUHU216DAVISVP2,2013-07-13 19:47:00,
2013-07-13 15:52:00,77.9,69.1,30.29,NE,55,2.0,3.0,74,0.00,,,0.00,241.0,WUHU216DAVISVP2,2013-07-13 19:52:00,
2013-07-13 15:57:00,77.6,66.0,30.29,NW,306,1.0,3.0,67,0.00,,,0.00,279.0,WUHU216DAVISVP2,2013-07-13 19:57:00,
2013-07-13 16:02:00,78.0,66.4,30.29,NNE,15,1.0,3.0,67,0.00,,,0.00,221.0,WUHU216DAVISVP2,2013-07-13 20:02:00,
2013-07-13 16:07:00,77.7,66.5,30.29,NNE,23,1.0,3.0,68,0.00,,,0.00,192.0,WUHU216DAVISVP2,2013-07-13 20:07:00,
2013-07-13 16:12:00,77.3,67.8,30.29,NNE,27,1.0,3.0,72,0.00,,,0.00,144.0,WUHU216DAVISVP2,2013-07-13 20:12:00,
2013-07-13 16:17:00,77.1,68.0,30.29,NNE,27,2.0,3.0,73,0.00,,,0.00,132.0,WUHU216DAVISVP2,2013-07-13 20:17:00,
2013-07-13 16:25:00,77.2,67.5,30.29,NNW,338,1.0,3.0,72,0.00,,,0.00,212.0,WUHU216DAVISVP2,2013-07-13 20:25:00,
2013-07-13 16:30:00,77.9,68.1,30.29,NE,45,1.0,3.0,72,0.00,,,0.00,279.0,WUHU216DAVISVP2,2013-07-13 20:30:00,
2013-07-13 16:35:00,78.4,68.6,30.29,NNW,338,1.0,3.0,72,0.00,,,0.00,234.0,WUHU216DAVISVP2,2013-07-13 20:35:00,
2013-07-13 16:40:00,77.6,68.3,30.29,NNW,338,1.0,3.0,73,0.00,,,0.00,215.0,WUHU216DAVISVP2,2013-07-13 20:40:00,
2013-07-13 16:52:00,77.7,69.1,30.29,NNW,338,1.0,2.0,75,0.00,,,0.00,229.0,WUHU216DAVISVP2,2013-07-13 20:52:00,
2013-07-13 16:57:00,78.1,69.3,30.29,NW,306,0.0,2.0,74,0.00,,,0.00,223.0,WUHU216DAVISVP2,2013-07-13 20:57:00,
2013-07-13 17:02:00,78.5,68.9,30.29,NE,51,2.0,2.0,72,0.00,,,0.00,193.0,WUHU216DAVISVP2,2013-07-13 21:02:00,
2013-07-13 17:07:00,77.9,69.5,30.29,NNE,23,1.0,2.0,75,0.00,,,0.00,148.0,WUHU216DAVISVP2,2013-07-13 21:07:00,
2013-07-13 17:12:00,77.2,68.4,30.29,NNE,13,0.0,2.0,74,0.00,,,0.00,188.0,WUHU216DAVISVP2,2013-07-13 21:12:00,
2013-07-13 17:17:00,77.4,68.3,30.29,NE,44,2.0,3.0,73,0.00,,,0.00,367.0,WUHU216DAVISVP2,2013-07-13 21:17:00,
2013-07-13 17:22:00,77.6,68.1,30.29,SW,225,1.0,3.0,72,0.00,,,0.00,318.0,WUHU216DAVISVP2,2013-07-13 21:22:00,
2013-07-13 17:27:00,78.2,68.2,30.29,ENE,61,1.0,3.0,71,0.00,,,0.00,190.0,WUHU216DAVISVP2,2013-07-13 21:27:00,
2013-07-13 17:32:00,77.9,68.5,30.29,WSW,245,0.0,3.0,73,0.00,,,0.00,183.0,WUHU216DAVISVP2,2013-07-13 21:32:00,
2013-07-13 17:37:00,77.6,68.8,30.28,ENE,57,1.0,3.0,74,0.00,,,0.00,169.0,WUHU216DAVISVP2,2013-07-13 21:37:00,
2013-07-13 17:42:00,77.7,68.9,30.28,NNE,26,0.0,3.0,74,0.00,,,0.00,188.0,WUHU216DAVISVP2,2013-07-13 21:42:00,
2013-07-13 17:47:00,77.4,68.6,30.29,NW,321,0.0,3.0,74,0.00,,,0.00,178.0,WUHU216DAVISVP2,2013-07-13 21:47:00,
2013-07-13 17:52:00,77.4,69.0,30.29,NNW,340,1.0,3.0,75,0.00,,,0.00,105.0,WUHU216DAVISVP2,2013-07-13 21:52:00,
2013-07-13 17:57:00,76.3,69.1,30.29,WSW,258,0.0,4.0,78,0.00,,,0.00,100.0,WUHU216DAVISVP2,2013-07-13 21:57:00,
2013-07-13 18:02:00,75.9,68.3,30.28,NNW,328,0.0,4.0,77,0.00,,,0.00,128.0,WUHU216DAVISVP2,2013-07-13 22:02:00,
2013-07-13 18:07:00,75.7,68.5,30.28,North,349,1.0,4.0,78,0.00,,,0.00,120.0,WUHU216DAVISVP2,2013-07-13 22:07:00,
2013-07-13 18:12:00,75.8,67.5,30.29,North,349,0.0,4.0,75,0.00,,,0.00,132.0,WUHU216DAVISVP2,2013-07-13 22:12:00,
2013-07-13 18:17:00,76.1,67.8,30.28,North,355,0.0,2.0,75,0.00,,,0.00,125.0,WUHU216DAVISVP2,2013-07-13 22:17:00,
2013-07-13 18:22:00,76.2,69.0,30.29,North,355,1.0,2.0,78,0.00,,,0.00,107.0,WUHU216DAVISVP2,2013-07-13 22:22:00,
2013-07-13 18:27:00,75.9,67.9,30.29,NW,323,1.0,3.0,76,0.00,,,0.00,105.0,WUHU216DAVISVP2,2013-07-13 22:27:00,
2013-07-13 18:32:00,75.6,68.4,30.29,NW,319,0.0,3.0,78,0.00,,,0.00,84.0,WUHU216DAVISVP2,2013-07-13 22:32:00,
2013-07-13 18:37:00,75.4,67.8,30.29,NNE,15,0.0,3.0,77,0.00,,,0.00,97.0,WUHU216DAVISVP2,2013-07-13 22:37:00,
2013-07-13 18:42:00,75.5,67.9,30.29,NNE,16,1.0,2.0,77,0.00,,,0.00,102.0,WUHU216DAVISVP2,2013-07-13 22:42:00,
2013-07-13 18:47:00,75.4,68.2,30.29,NE,38,1.0,2.0,78,0.00,,,0.00,67.0,WUHU216DAVISVP2,2013-07-13 22:47:00,
2013-07-13 18:52:00,75.0,67.8,30.29,NE,49,1.0,3.0,78,0.00,,,0.00,69.0,WUHU216DAVISVP2,2013-07-13 22:52:00,
2013-07-13 19:05:00,74.0,68.2,30.29,NNE,29,2.0,2.0,82,0.00,,,0.00,39.0,WUHU216DAVISVP2,2013-07-13 23:05:00,
2013-07-13 19:10:00,73.7,68.3,30.29,NNE,29,1.0,2.0,83,0.00,,,0.00,44.0,WUHU216DAVISVP2,2013-07-13 23:10:00,
2013-07-13 19:15:00,74.0,68.9,30.29,NNE,33,1.0,2.0,84,0.00,,,0.00,51.0,WUHU216DAVISVP2,2013-07-13 23:15:00,
2013-07-13 19:20:00,74.1,69.0,30.30,NE,35,2.0,2.0,84,0.00,,,0.00,53.0,WUHU216DAVISVP2,2013-07-13 23:20:00,
2013-07-13 19:25:00,74.2,68.8,30.29,NE,35,1.0,2.0,83,0.00,,,0.00,46.0,WUHU216DAVISVP2,2013-07-13 23:25:00,
2013-07-13 19:30:00,74.1,69.0,30.29,NE,36,1.0,2.0,84,0.00,,,0.00,46.0,WUHU216DAVISVP2,2013-07-13 23:30:00,
2013-07-13 19:35:00,73.9,68.8,30.29,NE,36,1.0,2.0,84,0.00,,,0.00,32.0,WUHU216DAVISVP2,2013-07-13 23:35:00,
2013-07-13 19:40:00,73.7,69.3,30.29,NE,36,1.0,2.0,86,0.00,,,0.00,30.0,WUHU216DAVISVP2,2013-07-13 23:40:00,
2013-07-13 19:46:00,73.5,68.7,30.29,NE,36,1.0,2.0,85,0.00,,,0.00,30.0,WUHU216DAVISVP2,2013-07-13 23:46:00,
2013-07-13 19:56:00,73.3,69.2,30.29,NE,36,1.0,2.0,87,0.00,,,0.00,19.0,WUHU216DAVISVP2,2013-07-13 23:56:00,
2013-07-13 20:00:00,73.0,68.9,30.29,NE,36,0.0,2.0,87,0.00,,,0.00,14.0,WUHU216DAVISVP2,2013-07-14 00:00:00,
2013-07-13 20:05:00,73.0,68.6,30.29,NE,36,0.0,2.0,86,0.00,,,0.00,11.0,WUHU216DAVISVP2,2013-07-14 00:05:00,
2013-07-13 20:10:00,72.8,69.0,30.29,NE,36,1.0,2.0,88,0.00,,,0.00,9.0,WUHU216DAVISVP2,2013-07-14 00:10:00,
2013-07-13 20:18:00,72.5,69.1,30.29,NE,36,0.0,2.0,89,0.00,,,0.00,7.0,WUHU216DAVISVP2,2013-07-14 00:18:00,
2013-07-13 20:23:00,72.4,69.0,30.29,NE,36,1.0,2.0,89,0.00,,,0.00,5.0,WUHU216DAVISVP2,2013-07-14 00:23:00,
2013-07-13 20:28:00,72.4,68.6,30.29,NE,36,1.0,2.0,88,0.00,,,0.00,0.0,WUHU216DAVISVP2,2013-07-14 00:28:00,
2013-07-13 20:33:00,72.3,68.5,30.30,NE,37,1.0,1.0,88,0.00,,,0.00,0.0,WUHU216DAVISVP2,2013-07-14 00:33:00,
2013-07-13 20:38:00,72.0,68.9,30.29,NE,37,0.0,1.0,90,0.00,,,0.00,0.0,WUHU216DAVISVP2,2013-07-14 00:38:00,
2013-07-13 20:43:00,71.9,68.8,30.29,NE,37,0.0,1.0,90,0.00,,,0.00,0.0,WUHU216DAVISVP2,2013-07-14 00:43:00,
2013-07-13 20:48:00,71.8,68.4,30.29,NE,37,0.0,1.0,89,0.00,,,0.00,0.0,WUHU216DAVISVP2,2013-07-14 00:48:00,
2013-07-13 20:53:00,71.9,68.5,30.30,NE,37,0.0,1.0,89,0.00,,,0.00,0.0,WUHU216DAVISVP2,2013-07-14 00:53:00,
2013-07-13 20:58:00,71.9,68.8,30.29,NE,37,0.0,1.0,90,0.00,,,0.00,0.0,WUHU216DAVISVP2,2013-07-14 00:58:00,
2013-07-13 21:03:00,71.8,68.7,30.29,NE,37,0.0,1.0,90,0.00,,,0.00,0.0,WUHU216DAVISVP2,2013-07-14 01:03:00,
2013-07-13 21:08:00,71.8,68.7,30.30,NE,37,0.0,1.0,90,0.00,,,0.00,0.0,WUHU216DAVISVP2,2013-07-14 01:08:00,
2013-07-13 21:13:00,71.7,68.6,30.29,NE,37,0.0,1.0,90,0.00,,,0.00,0.0,WUHU216DAVISVP2,2013-07-14 01:13:00,
2013-07-13 21:18:00,71.6,68.5,30.30,NE,37,0.0,1.0,90,0.00,,,0.00,0.0,WUHU216DAVISVP2,2013-07-14 01:18:00,
2013-07-13 21:23:00,71.6,68.5,30.29,NE,37,0.0,0.0,90,0.00,,,0.00,0.0,WUHU216DAVISVP2,2013-07-14 01:23:00,
2013-07-13 21:28:00,71.5,68.4,30.30,NE,37,0.0,0.0,90,0.00,,,0.00,0.0,WUHU216DAVISVP2,2013-07-14 01:28:00,
2013-07-13 21:33:00,71.3,68.5,30.30,NE,37,0.0,1.0,91,0.00,,,0.00,0.0,WUHU216DAVISVP2,2013-07-14 01:33:00,
2013-07-13 21:38:00,71.2,68.1,30.30,NE,37,0.0,1.0,90,0.00,,,0.00,0.0,WUHU216DAVISVP2,2013-07-14 01:38:00,
2013-07-13 21:43:00,71.1,68.0,30.30,NE,37,0.0,1.0,90,0.00,,,0.00,0.0,WUHU216DAVISVP2,2013-07-14 01:43:00,
2013-07-13 21:48:00,70.9,68.1,30.29,NE,37,0.0,1.0,91,0.00,,,0.00,0.0,WUHU216DAVISVP2,2013-07-14 01:48:00,
2013-07-13 21:53:00,70.7,67.9,30.29,NE,37,0.0,0.0,91,0.00,,,0.00,0.0,WUHU216DAVISVP2,2013-07-14 01:53:00,
2013-07-13 21:58:00,70.5,68.0,30.30,NE,37,0.0,1.0,92,0.00,,,0.00,0.0,WUHU216DAVISVP2,2013-07-14 01:58:00,
2013-07-13 22:03:00,70.3,67.8,30.29,NE,37,0.0,1.0,92,0.00,,,0.00,0.0,WUHU216DAVISVP2,2013-07-14 02:03:00,
2013-07-13 22:08:00,70.4,68.0,30.30,NE,37,0.0,1.0,92,0.00,,,0.00,0.0,WUHU216DAVISVP2,2013-07-14 02:08:00,
2013-07-13 22:13:00,70.3,67.9,30.30,NE,37,0.0,1.0,92,0.00,,,0.00,0.0,WUHU216DAVISVP2,2013-07-14 02:13:00,
2013-07-13 22:18:00,70.1,68.0,30.30,NE,37,0.0,1.0,93,0.00,,,0.00,0.0,WUHU216DAVISVP2,2013-07-14 02:18:00,
2013-07-13 22:23:00,70.0,67.5,30.30,NE,37,0.0,1.0,92,0.00,,,0.00,0.0,WUHU216DAVISVP2,2013-07-14 02:23:00,
2013-07-13 22:28:00,69.8,67.7,30.30,NE,37,0.0,0.0,93,0.00,,,0.00,0.0,WUHU216DAVISVP2,2013-07-14 02:28:00,
2013-07-13 22:33:00,69.5,67.7,30.30,NE,37,0.0,1.0,94,0.00,,,0.00,0.0,WUHU216DAVISVP2,2013-07-14 02:33:00,
2013-07-13 22:38:00,69.6,67.8,30.30,NE,37,0.0,1.0,94,0.00,,,0.00,0.0,WUHU216DAVISVP2,2013-07-14 02:38:00,
2013-07-13 22:43:00,69.7,67.9,30.30,NE,37,0.0,1.0,94,0.00,,,0.00,0.0,WUHU216DAVISVP2,2013-07-14 02:43:00,
2013-07-13 22:48:00,69.7,67.9,30.30,NE,37,0.0,0.0,94,0.00,,,0.00,0.0,WUHU216DAVISVP2,2013-07-14 02:48:00,
2013-07-13 22:53:00,69.8,68.0,30.30,NE,37,0.0,0.0,94,0.00,,,0.00,0.0,WUHU216DAVISVP2,2013-07-14 02:53:00,
2013-07-13 22:58:00,70.0,68.2,30.30,NE,37,0.0,0.0,94,0.00,,,0.00,0.0,WUHU216DAVISVP2,2013-07-14 02:58:00,
2013-07-13 23:03:00,69.9,67.8,30.30,NE,37,0.0,0.0,93,0.00,,,0.00,0.0,WUHU216DAVISVP2,2013-07-14 03:03:00,
2013-07-13 23:08:00,69.8,67.7,30.30,NE,37,0.0,0.0,93,0.00,,,0.00,0.0,WUHU216DAVISVP2,2013-07-14 03:08:00,
2013-07-13 23:13:00,69.9,68.1,30.30,NE,37,0.0,0.0,94,0.00,,,0.00,0.0,WUHU216DAVISVP2,2013-07-14 03:13:00,
2013-07-13 23:18:00,69.9,68.1,30.30,NE,37,0.0,0.0,94,0.00,,,0.00,0.0,WUHU216DAVISVP2,2013-07-14 03:18:00,
2013-07-13 23:23:00,69.8,68.0,30.30,NE,37,0.0,0.0,94,0.00,,,0.00,0.0,WUHU216DAVISVP2,2013-07-14 03:23:00,
2013-07-13 23:28:00,69.8,68.3,30.30,NE,37,0.0,0.0,95,0.00,,,0.00,0.0,WUHU216DAVISVP2,2013-07-14 03:28:00,
2013-07-13 23:33:00,69.7,67.9,30.30,NE,37,0.0,0.0,94,0.00,,,0.00,0.0,WUHU216DAVISVP2,2013-07-14 03:33:00,
2013-07-13 23:38:00,69.8,68.0,30.31,NE,37,0.0,1.0,94,0.00,,,0.00,0.0,WUHU216DAVISVP2,2013-07-14 03:38:00,
2013-07-13 23:43:00,69.8,68.0,30.30,NE,37,0.0,1.0,94,0.00,,,0.00,0.0,WUHU216DAVISVP2,2013-07-14 03:43:00,
2013-07-13 23:48:00,69.9,67.8,30.31,NE,37,0.0,1.0,93,0.00,,,0.00,0.0,WUHU216DAVISVP2,2013-07-14 03:48:00,
2013-07-13 23:53:00,70.0,67.9,30.30,NE,37,0.0,1.0,93,0.00,,,0.00,0.0,WUHU216DAVISVP2,2013-07-14 03:53:00,
2013-07-13 23:58:00,70.1,68.0,30.30,NE,37,0.0,1.0,93,0.00,,,0.00,0.0,WUHU216DAVISVP2,2013-07-14 03:58:00,